#timestamp,LO_Frequency,Hit,StdDev 
1675087215.5,286047006.3,N
1675087235.4,286047009.1,N
1675087255.2,286047006.7,N
1675087275.0,286047005.8,N
1675087275.9,286047005.8,N
1675087295.8,286047001.3,N
1675087315.6,286047000.1,N
1675087335.4,286046999.8,N
1675087355.3,286047004.3,N
1675087375.1,286047000.5,N
1675087395.9,286046998.5,N
1675087415.7,286046997.8,N
1675087435.5,286046997.5,N
1675087455.4,286046997.5,N
1675087475.2,286046997.4,N
1675087495.0,286046996.5,N
1675087496.0,286046996.5,N
1675087515.8,286046999.1,N
1675087535.6,286046997.6,N
1675087555.5,286046996.7,N
1675087575.3,286046997.5,N
1675087595.1,286046995.4,N
1675087615.9,286046996.9,N
1675087635.7,286046995.2,N
1675087655.6,286046997.8,N
1675087675.4,286046999.4,N
1675087695.2,286046999.4,N
1675087715.1,286046997.1,N
1675087716.0,286046997.1,N
1675087735.8,286046995.3,N
1675087755.6,286047000.9,N
1675087775.5,286046997.2,N
1675087795.3,286046996.9,N
1675087815.1,286046995.3,N
1675087835.9,286046997.8,N
1675087855.7,286046997.0,N
1675087875.6,286046999.2,N
1675087895.4,286046997.5,N
1675087915.2,286046997.0,N
1675087935.1,286046996.3,N
1675087936.0,286046996.3,N
1675087955.8,286046994.5,Y
1675087975.7,286046997.0,P
1675087995.5,286046997.0,P
1675088015.3,286046999.1,P
1675088035.2,286046997.2,Y
1675088055.0,286046998.5,P
1675088055.9,286046998.5,P
1675088075.7,286047002.4,P
1675088095.6,286046999.9,N
1675088115.4,286047001.9,N
1675088135.3,286047002.8,N
1675088155.1,286047001.6,N
1675088156.0,286047001.6,N
1675088175.8,286047005.3,N
1675088195.7,286047008.5,Y
1675088215.5,286047005.4,P
1675088235.4,286047007.2,P
1675088255.2,286047007.9,P
1675088275.0,286047008.5,Y
1675088275.9,286047008.5,P
1675088295.8,286047002.5,N
1675088315.6,286047000.2,N
1675088335.5,286046999.9,N
1675088355.3,286047000.2,N
1675088375.1,286047000.1,N
1675088395.9,286046998.1,N
1675088415.7,286046999.2,N
1675088435.5,286046997.9,N
1675088455.4,286046997.8,N
1675088475.2,286046997.1,N
1675088495.1,286047001.1,N
1675088496.0,286047001.1,N
1675088515.8,286046999.4,N
1675088535.6,286047000.1,N
1675088555.5,286047004.4,N
1675088575.3,286047005.3,N
1675088595.1,286047003.6,N
1675088615.9,286047001.4,N
1675088635.7,286047002.3,N
1675088655.6,286047004.4,N
1675088675.4,286046998.1,N
1675088695.2,286046999.4,N
1675088715.1,286046999.4,N
1675088716.0,286046999.4,N
1675088735.8,286046997.4,N
1675088755.6,286046993.7,N
1675088775.5,286046993.9,N
1675088795.3,286046993.9,N
1675088815.2,286046997.4,N
1675088835.9,286047001.0,N
1675088855.7,286047002.3,N
1675088875.6,286047003.9,N
1675088895.4,286047003.9,N
1675088915.3,286047001.9,N
1675088935.1,286046998.6,N
1675088955.8,286046999.0,N
1675088975.7,286046996.5,N
1675088995.5,286046996.0,N
1675089015.4,286046994.0,N
1675089035.2,286046992.2,N
1675089055.0,286046994.7,N
1675089055.9,286046994.7,N
1675089075.8,286046996.4,N
1675089095.6,286046993.5,N
1675089115.5,286046993.7,N
1675089135.3,286046993.3,N
1675089155.1,286046994.0,N
1675089175.9,286046994.3,N
1675089195.7,286046993.9,N
1675089215.5,286046999.0,N
1675089235.4,286046999.0,N
1675089255.2,286046998.3,N
1675089275.1,286046999.4,N
1675089276.0,286046999.4,N
1675089295.8,286046999.0,N
1675089315.6,286047002.8,N
1675089335.5,286047000.5,N
1675089355.3,286046999.1,N
1675089375.1,286046997.3,N
1675089395.9,286046995.7,N
1675089415.7,286046995.1,N
1675089435.6,286046995.6,N
1675089455.4,286047000.3,N
1675089475.2,286047002.5,N
1675089495.1,286047005.6,N
1675089496.0,286047005.6,N
1675089515.8,286047004.2,N
1675089535.7,286047002.1,N
1675089555.5,286047004.4,N
1675089575.3,286047001.4,N
1675089595.2,286047002.0,N
1675089615.9,286047000.3,N
1675089635.7,286046998.3,N
1675089655.6,286046999.0,N
1675089675.4,286046996.9,N
1675089695.3,286046998.6,N
1675089715.1,286046998.5,N
1675089716.0,286046998.5,N
1675089735.8,286046996.5,N
1675089755.7,286046997.8,N
1675089775.5,286046997.9,N
1675089795.3,286046996.7,N
1675089815.2,286047001.1,N
1675089835.0,286046999.3,N
1675089835.9,286046999.3,N
1675089855.8,286046997.6,N
1675089875.6,286046995.2,N
1675089895.4,286046995.0,N
1675089915.3,286046995.0,N
1675089935.1,286046996.4,N
1675089955.9,286046995.3,N
1675089975.7,286046997.3,N
1675089995.5,286046995.3,N
1675090015.4,286046993.7,N
1675090035.2,286046998.8,N
1675090055.0,286047002.8,N
1675090055.9,286047002.8,N
1675090075.8,286047001.3,N
1675090095.6,286047004.0,N
1675090115.5,286047001.3,N
1675090135.3,286047004.4,N
1675090155.1,286047003.5,N
1675090175.9,286047003.1,N
1675090195.7,286047004.2,N
1675090215.5,286047000.1,N
1675090235.4,286047000.2,N
1675090255.2,286047000.7,N
1675090275.1,286046996.9,N
1675090276.0,286046996.9,N
1675090295.8,286046997.9,N
1675090315.6,286046995.3,N
1675090335.5,286046999.5,N
1675090355.3,286046997.1,N
1675090375.1,286046998.7,N
1675090395.9,286046998.3,N
1675090415.7,286046996.6,N
1675090435.6,286047000.2,N
1675090455.4,286047001.4,N
1675090475.2,286047003.5,N
1675090495.1,286047005.6,N
1675090496.0,286047005.6,N
1675090515.8,286047004.5,N
1675090535.6,286047005.2,N
1675090555.5,286047004.8,N
1675090575.3,286047005.0,N
1675090595.2,286047006.6,N
1675090615.9,286047006.7,N
1675090635.7,286047007.6,N
1675090655.6,286047006.2,N
1675090675.4,286047005.9,N
1675090695.2,286047002.2,N
1675090715.1,286046999.8,N
1675090716.0,286046999.8,N
1675090735.8,286047001.1,N
1675090755.7,286047000.8,N
1675090775.5,286046999.3,N
1675090795.3,286046997.5,N
